Miscellaneous Local Product
Issued by NWS North Platte, NE

Home | Current Version | Previous Version | Text Only | Print | Product List | Glossary On
Versions: 1 2 3 4 5 6 7 8 9 10 11 12 13 14 15 16 17 18 19 20 21 22 23 24 25 26 27 28 29 30 31 32 33 34 35 36 37 38 39 40 41 42 43 44 45 46 47 48 49 50
432
AXUS43 KLBF 220510
MISLBF


WESTERN AND NORTH CENTRAL NEBRASKA HOURLY WEATHER ROUNDUP
NATIONAL WEATHER SERVICE NORTH PLATTE NE
1100 PM CST SAT JAN 21 2017

NOTE: "FAIR" INDICATES FEW OR NO CLOUDS BELOW 12,000 FEET WITH NO
SIGNIFICANT WEATHER AND/OR OBSTRUCTIONS TO VISIBILITY.

NOTE: STATIONS NOT REPORTING VARIABLES SUCH AS SKY/WEATHER OR
PRESSURE ARE PROVIDED BY RAWS AND APRS NETWORKS AND ARE NOT UNDER
NATIONAL WEATHER SERVICE QUALITY CONTROL.

...OBSERVATIONS IN AND NEAR THE EASTERN PANHANDLE OF NEBRASKA...

CITY           SKY/WX    TMP DP  RH WIND       PRES   REMARKS
PINE RIDGE     CLOUDY    20  18  92 CALM      29.65R
CHADRON        CLOUDY    23  21  92 W5        29.66R WCI  17
ALLIANCE       CLEAR     25  21  85 N5        29.63R WCI  19
SIDNEY         CLOUDY    30  26  85 W9        29.63R WCI  22
CRESCENT LAKE    N/A     28  25  87 N6          N/A  WCI  22
$$

...OBSERVATIONS IN NORTHERN NEBRASKA AND FAR SOUTHERN SOUTH DAKOTA...

CITY           SKY/WX    TMP DP  RH WIND       PRES   REMARKS
WINNER         FAIR      29  26  89 W8        29.61R WCI  21
VALENTINE      CLEAR     26  23  88 NW7       29.62R WCI  18
THEDFORD       CLEAR     28  27  95 CALM      29.63R
AINSWORTH      CLEAR     27  26  98 W5        29.62R WCI  21
O`NEILL        CLEAR     32  29  88 NW7       29.59S WCI  26
ORD            CLEAR     29  25  85 N7        29.59R WCI  22
BROKEN BOW     CLOUDY    33  30  88 N8        29.59R WCI  26
VALENTINE NWR    N/A     28  26  94 NW6         N/A  WCI  22
BUTTE            N/A     27  25  92 CALM        N/A
HALSEY           N/A     31  29  92 CALM        N/A
SARGENT          N/A     34  29  82 CALM        N/A
CHAMBERS         N/A     31  26  82 CALM        N/A
EWING            N/A     29  27  91 CALM        N/A
$$

...OBSERVATIONS IN SOUTHWEST NEBRASKA AND FAR NORTHEAST COLORADO...

CITY           SKY/WX    TMP DP  RH WIND       PRES   REMARKS
WRAY           FAIR      32  28  86 CALM      29.63
HOLYOKE        FAIR      30  28  93 W6        29.63R WCI  24
IMPERIAL       CLOUDY    33  26  75 NW6       29.62R WCI  28
OGALLALA       CLOUDY    30  28  89 SW3       29.63R
NORTH PLATTE   CLOUDY    31  26  82 W5        29.62R WCI  26
MCCOOK         CLOUDY    34  28  79 N13       29.59R WCI  25
LEXINGTON      CLEAR     30  28  92 NW7       29.60R WCI  23
STAPLETON        N/A     29  27  90 CALM        N/A
GOTHENBURG       N/A     32  28  83 W3          N/A
CALLAWAY         N/A     32  29  87 N3          N/A
$$

...OBSERVATIONS IN CENTRAL LINCOLN COUNTY AREA...

CITY           SKY/WX    TMP DP  RH WIND       PRES   REMARKS
N.P. AIRPORT   CLOUDY    31  26  82 W5        29.62R WCI  26
N.P. DOWNTOWN    N/A     30  27  90 CALM        N/A
N.P. SOUTHEAST   N/A     30  26  85 CALM        N/A
N.P. HILLCREST   N/A     32  28  86 N5          N/A  WCI  27
$$

...SOME OBSERVATIONS FROM AROUND THE REGION...

CITY           SKY/WX    TMP DP  RH WIND       PRES   REMARKS
LARAMIE        CLOUDY    15  12  88 E6        29.65R WCI   6
CHEYENNE       CLOUDY    29  20  69 NW7       29.64R WCI  22
DENVER         CLOUDY    32  25  75 W6        29.64R WCI  26
AKRON          CLOUDY    34  23  64 CALM      29.63R
SCOTTSBLUFF    MOCLDY    27  24  89 NW5       29.64R WCI  22
RAPID CITY     CLOUDY    28  22  78 N12       29.62R WCI  18
BISMARCK       FOG       17  15  92 CALM      29.60R VSB 1/2
PIERRE         CLEAR     20  17  88 NW10      29.58R WCI   9
SIOUX FALLS    CLOUDY    32  30  92 NW8       29.57R WCI  25
OMAHA          CLEAR     32  28  85 N3        29.56R FOG
GRAND ISLAND   CLEAR     30  30 100 NW7       29.59R FOG     WCI  23
KANSAS CITY    CLOUDY    47  42  83 E5        29.53R
WICHITA        CLOUDY    47  41  80 NE13      29.43F
OKLAHOMA CITY  MOCLDY    49  43  80 S3        29.33S
DALLAS         MOCLDY    58  44  60 SW14      29.41F
AMARILLO       LGT RAIN  37  36  96 NW22G30   29.40R WCI  26
DODGE CITY     LGT RAIN  40  39  97 N14       29.48R WCI  32
HAYS           LGT RAIN  44  38  79 NE9       29.54R
GOODLAND       MOCLDY    32  28  85 NW9       29.60R WCI  24
$$




USA.gov is the U.S. government's official web portal to all federal, state and local government web resources and services.